Jackson, TN

12:15 PM CDT on April 26, 2017 (GMT -0500)
McKellar-Sipes Regional

Weather History for KMKL - March, 2013

Change the Weather History Date:

Sunday, March 31, 2013

  Actual Average Record
Temperature  
Mean Temperature 52 °F 55 °F  
Max Temperature 63 °F 68 °F 86 °F (1986)
Min Temperature 40 °F 43 °F 27 °F (1987)
Degree Days  
Heating Degree Days 13 10  
Month to date heating degree days 634 445  
Since 1 July heating degree days 3337 3328  
Cooling Degree Days 0 1  
Month to date cooling degree days 0 10  
Year to date cooling degree days 4 11  
Growing Degree Days 2 (Base 50)    
Moisture  
Dew Point 51 °F    
Average Humidity 82    
Maximum Humidity 100    
Minimum Humidity 64    
Precipitation  
Precipitation 0.13 in 0.17 in 2.91 in (2016)
Month to date precipitation 3.85 4.75  
Year to date precipitation 15.79 12.99  
Snow  
Snow 0.00 in - - ()
Month to date snowfall T  
Snow Depth 0.00 in    
Sea Level Pressure  
Sea Level Pressure 29.92 in    
Wind  
Wind Speed 3 mph (SW)    
Max Wind Speed 16 mph    
Max Gust Speed 21 mph    
Visibility 4 miles    
Events Fog , Rain    
T = Trace of Precipitation, MM = Missing Value Source: NWS Daily Summary

Daily Weather History Graph

Daily Weather History Graph

Search for Another Location

Airport or City:

Trip Planner

Search our weather history database for the weather conditions in past years. The results will help you decide how hot, cold, wet, or windy it might be!

Date:

Astronomy

Mar. 31, 2013 Rise Set
Actual Time 6:43 AM CDT 7:16 PM CDT
Civil Twilight 6:17 AM CDT 7:42 PM CDT
Nautical Twilight 5:47 AM CDT 8:12 PM CDT
Astronomical Twilight 5:16 AM CDT 8:43 PM CDT
Moon No Moon Rise 9:39 AM CDT (3/31)
Length of Visible Light 13h 24m
Length of Day
12h 33m
Waning Gibbous, 77% of the Moon is Illuminated
Mar 31
Waning Gibbous
Apr 2
Last Quarter
Apr 10
New
Apr 18
First Quarter
Apr 25
Full

Hourly Weather History & Observations

Time (CDT) Temp. Windchill Dew Point Humidity Pressure Visibility Wind Dir Wind Speed Gust Speed Precip Events Conditions
12:15 AM 53.6 °F - 53.6 °F 100% 29.95 in 10.0 mi SSW 6.9 mph - N/A   Overcast
12:41 AM 55.4 °F - 53.6 °F 94% 29.95 in 10.0 mi SW 6.9 mph - N/A   Overcast
12:50 AM 55.4 °F - 53.6 °F 94% 29.95 in 10.0 mi SSW 8.1 mph - N/A   Overcast
12:53 AM 55.0 °F - 53.1 °F 93% 29.94 in 10.0 mi SSW 5.8 mph - N/A   Overcast
1:16 AM 55.4 °F - 53.6 °F 94% 29.94 in 10.0 mi SW 6.9 mph - N/A   Overcast
1:36 AM 55.4 °F - 53.6 °F 94% 29.93 in 10.0 mi SSW 6.9 mph - N/A   Overcast
1:53 AM 55.0 °F - 54.0 °F 96% 29.94 in 10.0 mi SW 9.2 mph - N/A   Overcast
2:07 AM 55.4 °F - 53.6 °F 94% 29.93 in 9.0 mi SW 5.8 mph - N/A   Overcast
2:53 AM 55.0 °F - 54.0 °F 96% 29.91 in 6.0 mi SSW 3.5 mph - N/A   Overcast
3:53 AM 55.0 °F - 54.0 °F 96% 29.89 in 4.0 mi SSW 5.8 mph - N/A   Overcast
4:10 AM 53.6 °F - 53.6 °F 100% 29.89 in 2.5 mi SW 5.8 mph - N/A   Overcast
4:32 AM 55.4 °F - 53.6 °F 94% 29.89 in 3.0 mi SW 4.6 mph - N/A   Overcast
4:39 AM 55.4 °F - 53.6 °F 94% 29.89 in 2.0 mi SSW 5.8 mph - N/A   Overcast
4:53 AM 55.0 °F - 54.0 °F 96% 29.90 in 1.8 mi SW 4.6 mph - N/A   Overcast
5:45 AM 53.6 °F - 53.6 °F 100% 29.90 in 2.0 mi SSW 5.8 mph - N/A   Overcast
5:53 AM 55.0 °F - 54.0 °F 96% 29.90 in 2.5 mi SSW 5.8 mph - N/A   Overcast
6:06 AM 53.6 °F - 53.6 °F 100% 29.90 in 1.0 mi South 3.5 mph - N/A   Overcast
6:14 AM 53.6 °F - 53.6 °F 100% 29.90 in 0.8 mi SSW 5.8 mph - N/A   Mist
6:53 AM 54.0 °F - 54.0 °F 100% 29.90 in 0.8 mi SSW 3.5 mph - N/A   Mist
7:13 AM 55.4 °F - 53.6 °F 94% 29.92 in 2.0 mi SW 4.6 mph - N/A   Overcast
7:33 AM 53.6 °F - 53.6 °F 100% 29.92 in 1.2 mi Calm Calm - N/A   Overcast
7:45 AM 55.4 °F - 53.6 °F 94% 29.92 in 0.8 mi Calm Calm - N/A   Overcast
7:53 AM 55.0 °F - 54.0 °F 96% 29.91 in 1.0 mi Calm Calm - N/A   Overcast
8:00 AM 55.4 °F - 55.4 °F 100% 29.91 in 0.5 mi Calm Calm - N/A Fog Fog
8:27 AM 55.4 °F - 55.4 °F 100% 29.91 in 1.2 mi Calm Calm - N/A   Overcast
8:53 AM 55.9 °F - 55.0 °F 97% 29.91 in 1.2 mi Calm Calm - N/A   Overcast
9:45 AM 55.4 °F - 55.4 °F 100% 29.91 in 0.8 mi Calm Calm - N/A   Overcast
9:53 AM 57.0 °F - 55.9 °F 96% 29.92 in 1.0 mi Calm Calm - N/A   Overcast
10:53 AM 57.0 °F - 55.9 °F 96% 29.93 in 2.0 mi North 4.6 mph - 0.01 in   Overcast
11:24 AM 55.4 °F - 55.4 °F 100% 29.94 in 1.8 mi North 11.5 mph - 0.00 in   Overcast
11:35 AM 55.4 °F - 55.4 °F 100% 29.94 in 2.0 mi North 8.1 mph - 0.00 in   Overcast
11:43 AM 55.4 °F - 55.4 °F 100% 29.95 in 1.2 mi NNW 10.4 mph - 0.00 in   Overcast
11:53 AM 55.9 °F - 54.0 °F 93% 29.95 in 1.2 mi NNW 9.2 mph - 0.00 in Rain Light Rain
12:30 PM 55.4 °F - 53.6 °F 94% 29.98 in 2.5 mi North 12.7 mph - 0.10 in Rain Rain
12:37 PM 55.4 °F - 53.6 °F 94% 29.97 in 7.0 mi North 12.7 mph 20.7 mph 0.11 in Rain Light Rain
12:45 PM 55.4 °F - 51.8 °F 88% 29.96 in 8.0 mi NNE 13.8 mph - 0.11 in Rain Light Rain
12:53 PM 55.0 °F - 52.0 °F 89% 29.96 in 10.0 mi NNE 11.5 mph - 0.11 in   Overcast
1:53 PM 57.0 °F - 52.0 °F 83% 29.91 in 10.0 mi East 4.6 mph - N/A   Scattered Clouds
2:53 PM 60.1 °F - 50.0 °F 69% 29.90 in 10.0 mi East 4.6 mph - N/A   Mostly Cloudy
3:53 PM 60.1 °F - 48.9 °F 67% 29.91 in 10.0 mi Calm Calm - N/A   Clear
4:53 PM 61.0 °F - 48.9 °F 64% 29.89 in 10.0 mi Calm Calm - N/A   Clear
5:53 PM 63.0 °F - 50.0 °F 63% 29.89 in 10.0 mi North 3.5 mph - N/A   Clear
6:53 PM 59.0 °F - 48.0 °F 67% 29.90 in 10.0 mi Calm Calm - N/A   Clear
7:53 PM 54.0 °F - 46.9 °F 77% 29.91 in 10.0 mi Calm Calm - N/A   Clear
8:53 PM 48.9 °F - 46.0 °F 90% 29.92 in 10.0 mi SSW 3.5 mph - N/A   Clear
9:53 PM 46.9 °F - 46.0 °F 97% 29.93 in 7.0 mi South 3.5 mph - N/A   Clear
10:08 PM 46.4 °F 45.2 °F 44.6 °F 93% 29.93 in 1.8 mi South 3.5 mph - N/A   Clear
10:43 PM 46.4 °F 44.3 °F 44.6 °F 93% 29.93 in 3.0 mi SSW 4.6 mph - N/A   Clear
10:48 PM 44.6 °F 43.1 °F 44.6 °F 100% 29.93 in 1.8 mi SSW 3.5 mph - N/A   Clear
10:53 PM 45.0 °F - 44.1 °F 97% 29.94 in 0.8 mi Calm Calm - N/A   Clear
10:55 PM 42.8 °F - 42.8 °F 100% 29.93 in 0.8 mi Calm Calm - N/A   Mist
11:07 PM 42.8 °F - 42.8 °F 100% 29.94 in 1.5 mi Calm Calm - N/A   Partly Cloudy
11:10 PM 42.8 °F - 42.8 °F 100% 29.94 in 3.0 mi Calm Calm - N/A   Partly Cloudy
11:25 PM 42.8 °F - 42.8 °F 100% 29.94 in 1.0 mi Calm Calm - N/A   Mist
11:32 PM 42.8 °F - 42.8 °F 100% 29.94 in 0.5 mi Calm Calm - N/A Fog Fog
11:53 PM 42.1 °F - 41.0 °F 96% 29.94 in 0.5 mi Calm Calm - N/A Fog Fog